Ellensburg, WA

1:45 PM PDT on May 25, 2017 (GMT -0700)
Bowers

Weather History for KELN - September, 2013

Change the Weather History Date:

Monday, September 30, 2013

  Actual Average (KYKM) Record (KYKM)
Temperature  
Mean Temperature 50 °F -  
Max Temperature 60 °F 75 °F 85 °F (2008)
Min Temperature 1 °F 41 °F 26 °F (1985)
Degree Days  
Heating Degree Days 15    
Moisture  
Dew Point 39 °F    
Average Humidity 68    
Maximum Humidity 86    
Minimum Humidity 55    
Precipitation  
Precipitation 0.14 in - - ()
Sea Level Pressure  
Sea Level Pressure 29.73 in    
Wind  
Wind Speed 9 mph (NW)    
Max Wind Speed 20 mph    
Max Gust Speed 31 mph    
Visibility 10 miles    
Events Rain    
Averages and records for this station are not official NWS values.
T = Trace of Precipitation, MM = Missing Value Source: NWS Daily Summary

Daily Weather History Graph

Daily Weather History Graph

Search for Another Location

Airport or City:

Trip Planner

Search our weather history database for the weather conditions in past years. The results will help you decide how hot, cold, wet, or windy it might be!

Date:

Astronomy

Sep. 30, 2013 Rise Set
Actual Time 7:00 AM PDT 6:43 PM PDT
Civil Twilight 6:29 AM PDT 7:13 PM PDT
Nautical Twilight 5:54 AM PDT 7:48 PM PDT
Astronomical Twilight 5:18 AM PDT 8:24 PM PDT
Moon 2:27 AM PDT (9/30) 4:28 PM PDT (9/30)
Length of Visible Light 12h 43m
Length of Day
11h 42m
Waning Crescent, 18% of the Moon is Illuminated
Sep 30
Waning Crescent
Oct 4
New
Oct 11
First Quarter
Oct 18
Full
Oct 26
Last Quarter

Hourly Weather History & Observations

Time (PDT) Temp. Windchill Dew Point Humidity Pressure Visibility Wind Dir Wind Speed Gust Speed Precip Events Conditions
12:53 AM 48.0 °F - 39.0 °F 71% 29.44 in 10.0 mi NW 19.6 mph 31.1 mph N/A   Overcast
1:53 AM 46.9 °F - 37.0 °F 68% 29.47 in 10.0 mi NNW 10.4 mph - N/A   Mostly Cloudy
2:53 AM 48.9 °F - 36.0 °F 61% 29.51 in 10.0 mi NNW 5.8 mph - N/A   Overcast
3:53 AM 46.9 °F - 37.9 °F 71% 29.54 in 10.0 mi SSE 4.6 mph - 0.00 in   Overcast
4:53 AM 45.0 °F - 37.9 °F 76% 29.56 in 10.0 mi Calm Calm - 0.00 in Rain Light Rain
5:53 AM 43.0 °F - 39.0 °F 86% 29.61 in 10.0 mi Calm Calm - 0.00 in Rain Light Rain
6:53 AM 45.0 °F 43.5 °F 39.9 °F 82% 29.61 in 10.0 mi East 3.5 mph - 0.08 in Rain Light Rain
7:53 AM 46.9 °F - 41.0 °F 80% 29.64 in 10.0 mi Calm Calm - 0.01 in Rain Light Rain
8:53 AM 48.9 °F - 41.0 °F 74% 29.66 in 10.0 mi NNW 3.5 mph - 0.02 in Rain Light Rain
9:53 AM 48.9 °F - 42.1 °F 77% 29.70 in 10.0 mi WNW 6.9 mph - 0.03 in Rain Light Rain
10:53 AM 53.1 °F - 41.0 °F 64% 29.73 in 10.0 mi NNW 6.9 mph - 0.00 in   Partly Cloudy
11:53 AM 54.0 °F - 39.9 °F 59% 29.75 in 10.0 mi WNW 10.4 mph - N/A   Clear
12:53 PM 57.0 °F - 41.0 °F 55% 29.77 in 10.0 mi NNW 12.7 mph - N/A   Overcast
1:53 PM 55.9 °F - 41.0 °F 57% 29.80 in 10.0 mi NW 6.9 mph - 0.00 in   Overcast
2:53 PM 55.9 °F - 41.0 °F 57% 29.80 in 10.0 mi WNW 8.1 mph - N/A   Unknown
3:53 PM 55.9 °F - 39.9 °F 55% 29.82 in 10.0 mi WNW 9.2 mph - N/A   Mostly Cloudy
4:53 PM 55.9 °F - 41.0 °F 57% 29.82 in 10.0 mi NW 11.5 mph - N/A   Overcast
5:53 PM 53.1 °F - 39.0 °F 59% 29.84 in 10.0 mi NW 13.8 mph - N/A   Mostly Cloudy
6:53 PM 51.1 °F - 39.0 °F 63% 29.86 in 10.0 mi WNW 9.2 mph - N/A   Overcast
7:53 PM 50.0 °F - 39.0 °F 66% 29.88 in 10.0 mi NNW 15.0 mph - N/A   Overcast
8:53 PM 48.0 °F - 37.9 °F 68% 29.89 in 10.0 mi West 5.8 mph - N/A   Mostly Cloudy
9:53 PM 46.0 °F 41.9 °F 37.9 °F 73% 29.90 in 10.0 mi NW 8.1 mph - N/A   Mostly Cloudy
10:53 PM 43.0 °F 41.3 °F 37.0 °F 80% 29.92 in 10.0 mi WSW 3.5 mph - N/A   Mostly Cloudy
11:53 PM 1.9 °F -12.9 °F - N/A% 29.96 in 10.0 mi WNW 9.2 mph - N/A   Partly Cloudy